Kamez, Albania

11:46 AM CET on January 22, 2018 (GMT +0100)
Kamez

Weather History for 13615 - October, 2013

Change the Weather History Date:

Thursday, October 10, 2013

  Actual Average Record
Temperature  
Mean Temperature 67 °F -  
Max Temperature 75 °F 67 °F - ()
Min Temperature 59 °F 49 °F - ()
Cooling Degree Days 2    
Growing Degree Days 17 (Base 50)    
Moisture  
Dew Point 59 °F    
Average Humidity 78    
Maximum Humidity 94    
Minimum Humidity 53    
Precipitation  
Precipitation 0.00 in -13.12 in - ()
Sea Level Pressure  
Sea Level Pressure 30.02 in    
Wind  
Wind Speed 5 mph ()    
Max Wind Speed 13 mph    
Max Gust Speed -    
Visibility 5.9 miles    
Events Rain , Thunderstorm    
T = Trace of Precipitation, MM = Missing Value Source: Averaged Metar Reports

Daily Weather History Graph

Daily Weather History Graph

Search for Another Location

Airport or City:

Trip Planner

Search our weather history database for the weather conditions in past years. The results will help you decide how hot, cold, wet, or windy it might be!

Date:

Astronomy

Oct. 10, 2013 Rise Set
Actual Time 6:47 AM CEST 6:07 PM CEST
Civil Twilight 6:19 AM CEST 6:35 PM CEST
Nautical Twilight 5:47 AM CEST 7:07 PM CEST
Astronomical Twilight 5:15 AM CEST 7:39 PM CEST
Moon 12:24 PM CEST (10/10) 10:23 PM CEST (10/10)
Length of Visible Light 12h 16m
Length of Day
11h 20m
Waxing Crescent, 33% of the Moon is Illuminated
Oct 10
Waxing Crescent
Oct 12
First Quarter
Oct 19
Full
Oct 27
Last Quarter
Nov 3
New

Hourly Weather History & Observations

Time (CEST) Temp. Dew Point Humidity Pressure Visibility Wind Dir Wind Speed Gust Speed Precip Events Conditions
12:20 AM 60.8 °F 57.2 °F 88% 30.06 in 6.2 mi NW 5.8 mph - N/A   Mostly Cloudy
12:50 AM 60.8 °F 57.2 °F 88% 30.06 in 6.2 mi NNW 6.9 mph - N/A   Mostly Cloudy
1:20 AM 60.8 °F 57.2 °F 88% 30.06 in 6.2 mi North 3.5 mph - N/A   Mostly Cloudy
1:50 AM 60.8 °F 57.2 °F 88% 30.06 in 6.2 mi Calm Calm - N/A   Mostly Cloudy
2:20 AM 59.0 °F 55.4 °F 88% 30.06 in 6.2 mi SSE 3.5 mph - N/A   Mostly Cloudy
2:50 AM 59.0 °F 55.4 °F 88% 30.04 in 6.2 mi South 4.6 mph - N/A   Mostly Cloudy
3:20 AM 60.8 °F 57.2 °F 88% 30.04 in 6.2 mi SSE 6.9 mph - N/A   Mostly Cloudy
3:50 AM 60.8 °F 59.0 °F 94% 30.04 in 4.3 mi SSE 4.6 mph - N/A   Mostly Cloudy
4:20 AM 60.8 °F 57.2 °F 88% 30.04 in 3.7 mi SSE 3.5 mph - N/A   Mostly Cloudy
4:50 AM 60.8 °F 59.0 °F 94% 30.01 in 6.2 mi SSE 5.8 mph - N/A   Mostly Cloudy
5:00 AM 60 °F 57 °F 88% 30.02 in 4 mi SSE 4.5 mph - -   Scattered Clouds
5:20 AM 60.8 °F 57.2 °F 88% 30.01 in 5.0 mi SSE 2.3 mph - N/A   Mostly Cloudy
5:50 AM 60.8 °F 57.2 °F 88% 30.01 in 6.2 mi South 5.8 mph - N/A   Mostly Cloudy
6:20 AM 60.8 °F 57.2 °F 88% 30.01 in 6.2 mi South 5.8 mph - N/A   Mostly Cloudy
6:50 AM 60.8 °F 57.2 °F 88% 30.01 in 6.2 mi South 6.9 mph - N/A Thunderstorm Scattered Clouds
7:20 AM 62.6 °F 59.0 °F 88% 30.01 in 6.2 mi SSE 6.9 mph - N/A   Mostly Cloudy
7:50 AM 62.6 °F 57.2 °F 82% 30.01 in 6.2 mi SSE 6.9 mph - N/A   Mostly Cloudy
8:20 AM 64.4 °F 59.0 °F 83% 30.01 in 6.2 mi South 8.1 mph - N/A   Mostly Cloudy
8:50 AM 66.2 °F 57.2 °F 73% 30.04 in 6.2 mi South 8.1 mph - N/A   Mostly Cloudy
9:20 AM 66.2 °F 59.0 °F 78% 30.04 in 6.2 mi SSE 5.8 mph - N/A   Scattered Clouds
9:50 AM 69.8 °F 57.2 °F 64% 30.04 in 6.2 mi SSE 10.4 mph - N/A   Scattered Clouds
10:20 AM 69.8 °F 57.2 °F 64% 30.04 in 6.2 mi SSE 8.1 mph - N/A   Mostly Cloudy
10:50 AM 71.6 °F 57.2 °F 60% 30.04 in 6.2 mi South 9.2 mph - N/A   Mostly Cloudy
11:00 AM 72 °F 58 °F 53% 30.04 in 37 mi South 8.9 mph - -   Partly Cloudy
11:20 AM 73.4 °F 57.2 °F 57% 30.04 in 6.2 mi SSW 9.2 mph - N/A   Mostly Cloudy
11:50 AM 73.4 °F 57.2 °F 57% 30.04 in 6.2 mi SW 8.1 mph - N/A   Mostly Cloudy
12:20 PM 71.6 °F 59.0 °F 64% 30.04 in 6.2 mi SW 9.2 mph - N/A Rain Light Rain
12:50 PM 69.8 °F 62.6 °F 78% 30.01 in 6.2 mi West 4.6 mph - N/A   Mostly Cloudy
1:20 PM 73.4 °F 60.8 °F 65% 30.01 in 6.2 mi WSW 6.9 mph - N/A   Scattered Clouds
1:50 PM 73.4 °F 59.0 °F 61% 30.01 in 6.2 mi SW 11.5 mph - N/A   Scattered Clouds
2:20 PM 73.4 °F 60.8 °F 65% 30.01 in 6.2 mi SW 6.9 mph - N/A   Mostly Cloudy
2:50 PM 75.2 °F 60.8 °F 61% 30.01 in 6.2 mi WSW 12.7 mph - N/A   Mostly Cloudy
3:20 PM 73.4 °F 59.0 °F 61% 30.01 in 6.2 mi WSW 12.7 mph - N/A   Scattered Clouds
3:50 PM 73.4 °F 59.0 °F 61% 30.01 in 6.2 mi WSW 10.4 mph - N/A   Scattered Clouds
4:20 PM 73.4 °F 59.0 °F 61% 30.01 in 6.2 mi West 9.2 mph - N/A   Partly Cloudy
4:50 PM 73.4 °F 59.0 °F 61% 30.01 in 6.2 mi WSW 6.9 mph - N/A   Scattered Clouds
5:00 PM 72 °F 59 °F 55% 30.01 in 28 mi West 4.5 mph - -   Scattered Clouds
5:20 PM 71.6 °F 60.8 °F 69% 30.01 in 6.2 mi West 3.5 mph - N/A   Scattered Clouds
5:50 PM 73.4 °F 60.8 °F 65% 30.01 in 6.2 mi WSW 4.6 mph - N/A   Mostly Cloudy
6:20 PM 69.8 °F 60.8 °F 73% 30.01 in 6.2 mi Variable 1.2 mph - N/A   Mostly Cloudy
6:50 PM 66.2 °F 59.0 °F 78% 30.01 in 6.2 mi SE 6.9 mph - N/A   Mostly Cloudy
7:20 PM 64.4 °F 60.8 °F 88% 30.01 in 6.2 mi East 6.9 mph - N/A   Mostly Cloudy
7:50 PM 64.4 °F 60.8 °F 88% 30.01 in 6.2 mi Variable 2.3 mph - N/A   Mostly Cloudy
8:20 PM 62.6 °F 59.0 °F 88% 30.01 in 6.2 mi SW 2.3 mph - N/A   Mostly Cloudy
8:50 PM 62.6 °F 59.0 °F 88% 30.01 in 6.2 mi Variable 2.3 mph - N/A   Scattered Clouds
9:20 PM 60.8 °F 59.0 °F 94% 30.01 in 5.0 mi South 2.3 mph - N/A   Unknown
9:50 PM 60.8 °F 59.0 °F 94% 30.01 in - SSE 3.5 mph - N/A   Clear
10:20 PM 60.8 °F 59.0 °F 94% 30.01 in - South 4.6 mph - N/A   Clear
10:50 PM 59.0 °F 57.2 °F 94% 30.01 in 6.2 mi South 4.6 mph - N/A   Scattered Clouds
11:00 PM 60 °F 58 °F 93% 30.02 in 3 mi South 4.5 mph - -   Scattered Clouds
11:20 PM 60.8 °F 59.0 °F 94% 30.01 in 6.2 mi SSE 3.5 mph - N/A   Partly Cloudy
11:50 PM 60.8 °F 59.0 °F 94% 30.01 in 6.2 mi South 3.5 mph - N/A   Scattered Clouds